International Falls, MN

8:07 PM CDT on August 20, 2017 (GMT -0500)
Falls International

Weather History for KINL - June, 2013

Change the Weather History Date:

Wednesday, June 12, 2013

  Actual Average Record
Temperature  
Mean Temperature 58 °F 60 °F  
Max Temperature 72 °F 73 °F 93 °F (1956)
Min Temperature 44 °F 48 °F 30 °F (1957)
Degree Days  
Heating Degree Days 7 6  
Month to date heating degree days 139 87  
Since 1 June heating degree days 139 87  
Since 1 July heating degree days 10683 10144  
Cooling Degree Days 0 1  
Month to date cooling degree days 0 12  
Year to date cooling degree days 3 21  
Since 1 June cooling degree days 0 12  
Growing Degree Days 8 (Base 50)    
Moisture  
Dew Point 47 °F    
Average Humidity 70    
Maximum Humidity 100    
Minimum Humidity 40    
Precipitation  
Precipitation 0.00 in 0.13 in 2.65 in (2014)
Month to date precipitation 0.53 1.40  
Year to date precipitation 12.91 7.93  
Snow  
Snow 0.00 in 0.00 in 0.00 in (2002)
Month to date snowfall 0.0 0.0  
Since 1 June snowfall 0.0 0.0  
Since 1 July snowfall 98.6 71.0  
Snow Depth 0.00 in    
Sea Level Pressure  
Sea Level Pressure 29.94 in    
Wind  
Wind Speed 6 mph (North)    
Max Wind Speed 15 mph    
Max Gust Speed 22 mph    
Visibility 10 miles    
Events      
T = Trace of Precipitation, MM = Missing Value Source: NWS Daily Summary

Daily Weather History Graph

Daily Weather History Graph

Search for Another Location

Airport or City:

Trip Planner

Search our weather history database for the weather conditions in past years. The results will help you decide how hot, cold, wet, or windy it might be!

Date:

Astronomy

Jun. 12, 2013 Rise Set
Actual Time 5:11 AM CDT 9:16 PM CDT
Civil Twilight 4:29 AM CDT 9:58 PM CDT
Nautical Twilight 3:30 AM CDT 10:57 PM CDT
Astronomical Twilight 1:41 AM CDT 12:48 AM CDT
Moon 9:05 AM CDT (6/12) 11:34 PM CDT (6/12)
Length of Visible Light 17h 28m
Length of Day
16h 05m
Waxing Crescent, 14% of the Moon is Illuminated
Jun 12
Waxing Crescent
Jun 16
First Quarter
Jun 23
Full
Jun 29
Last Quarter
Jul 8
New

Hourly Weather History & Observations

Time (CDT) Temp. Dew Point Humidity Pressure Visibility Wind Dir Wind Speed Gust Speed Precip Events Conditions
12:55 AM 46.9 °F 46.0 °F 97% 29.90 in 10.0 mi Calm Calm - N/A   Clear
1:55 AM 45.0 °F 44.1 °F 97% 29.91 in 10.0 mi Calm Calm - N/A   Clear
2:55 AM 45.0 °F 43.0 °F 93% 29.91 in 10.0 mi Calm Calm - N/A   Clear
3:55 AM 44.1 °F 44.1 °F 100% 29.91 in 10.0 mi Calm Calm - N/A   Clear
4:55 AM 44.1 °F 43.0 °F 96% 29.91 in 10.0 mi Calm Calm - N/A   Mostly Cloudy
5:55 AM 45.0 °F 44.1 °F 97% 29.93 in 10.0 mi Calm Calm - N/A   Mostly Cloudy
6:55 AM 55.9 °F 51.1 °F 84% 29.92 in 10.0 mi Calm Calm - N/A   Partly Cloudy
7:55 AM 61.0 °F 51.1 °F 70% 29.92 in 10.0 mi NNE 5.8 mph - N/A   Clear
8:55 AM 64.9 °F 51.1 °F 61% 29.93 in 10.0 mi NNE 5.8 mph - N/A   Clear
9:55 AM 66.9 °F 48.0 °F 51% 29.93 in 10.0 mi NNE 8.1 mph - N/A   Clear
10:55 AM 69.1 °F 48.0 °F 47% 29.94 in 10.0 mi Variable 6.9 mph - N/A   Scattered Clouds
11:55 AM 66.9 °F 46.9 °F 49% 29.96 in 10.0 mi NE 4.6 mph - N/A   Overcast
12:55 PM 70.0 °F 48.0 °F 46% 29.96 in 10.0 mi Variable 5.8 mph - N/A   Overcast
1:55 PM 72.0 °F 48.0 °F 43% 29.95 in 10.0 mi NNW 6.9 mph - N/A   Mostly Cloudy
2:55 PM 69.1 °F 45.0 °F 42% 29.95 in 10.0 mi North 11.5 mph - N/A   Scattered Clouds
3:55 PM 70.0 °F 46.0 °F 42% 29.95 in 10.0 mi NNE 11.5 mph - N/A   Partly Cloudy
4:55 PM 69.1 °F 46.0 °F 44% 29.95 in 10.0 mi North 11.5 mph 17.3 mph N/A   Mostly Cloudy
5:55 PM 70.0 °F 48.0 °F 46% 29.96 in 10.0 mi North 8.1 mph - N/A   Clear
6:55 PM 70.0 °F 46.9 °F 44% 29.95 in 10.0 mi North 12.7 mph 18.4 mph N/A   Clear
7:55 PM 69.1 °F 46.9 °F 45% 29.96 in 10.0 mi North 9.2 mph - N/A   Clear
8:55 PM 66.0 °F 48.0 °F 52% 29.97 in 10.0 mi North 9.2 mph - N/A   Clear
9:55 PM 57.0 °F 48.9 °F 74% 30.00 in 10.0 mi NNW 4.6 mph - N/A   Clear
10:55 PM 60.1 °F 50.0 °F 69% 30.01 in 10.0 mi North 5.8 mph - N/A   Clear
11:55 PM 61.0 °F 50.0 °F 67% 30.04 in 10.0 mi North 6.9 mph - N/A   Clear